Location: ??????
(41.3794°N, 22.5014°E)
Time: 22:28:19
(UTC+00:00)

USA 281 - Pass Details

Date: 30 November 2020
Orbit: 1074 x 1084 km, 106.0° (Epoch: 08 January)

Event Time Altitude Azimuth Distance (km) Brightness Sun altitude
Rises 18:06:12 0° 176° (S) 3,868 6.1 -34.0°
Reaches altitude 10° 18:08:52 10° 183° (S) 2,915 5.5 -34.5°
Maximum altitude 18:15:00 42° 253° (WSW) 1,496 4.2 -35.7°
Drops below altitude 10° 18:21:11 10° 323° (NW) 2,925 5.9 -36.9°
Sets 18:23:53 0° 330° (NNW) 3,883 6.5 -37.4°
